CW3660 Weather Reports


Display with metric or nautical units.
time (UTC)temp
F
wind
direction
speed
MPH
gust
MPH
rain 1hr
in
rain 24hr
in
rain mn
in
humidity
%
barometer
mb
20260503173017 51 338 7.0 14.0 0.00 0.01 0.01 55 1006.0
20260503172017 50 338 8.0 17.0 0.00 0.02 0.01 55 1006.0
20260503171017 51 338 9.0 21.0 0.00 0.02 0.01 54 1006.0
20260503131017 42 315 3.0 9.0 0.01 0.02 0.01 89 1006.6
20260503081016 44 338 1.0 3.0 0.00 0.09 0.00 87 1008.1
20260503072016 44 315 1.0 4.0 0.00 0.09 0.00 88 1008.2
20260503071016 44 315 2.0 4.0 0.00 0.09 0.00 88 1008.4
20260503055016 45 0 2.0 6.0 0.00 0.09 0.00 86 1009.5
20260503054016 45 315 2.0 9.0 0.00 0.09 0.00 86 1009.3
20260503053036 45 338 3.0 9.0 0.00 0.09 0.00 86 1009.4
20260503052016 45 338 2.0 9.0 0.00 0.09 0.00 87 1009.7
20260503051016 46 315 1.0 4.0 0.00 0.09 0.00 87 1009.6
20260503050016 46 315 1.0 4.0 0.00 0.09 0.00 88 1009.7
20260503045036 46 315 2.0 5.0 0.00 0.09 0.00 88 1009.8
20260503044016 46 315 2.0 4.0 0.00 0.09 0.00 88 1010.1
20260503043016 46 315 1.0 3.0 0.00 0.09 0.00 88 1010.1
20260503042016 46 0.0 3.0 0.00 0.09 0.00 88 1010.2
20260503041016 47 315 1.0 3.0 0.00 0.09 0.00 88 1010.3
20260503040016 47 315 1.0 5.0 0.00 0.09 0.09 88 1010.2
20260503035016 47 293 2.0 4.0 0.00 0.09 0.09 88 1010.3
20260503034016 47 293 1.0 3.0 0.00 0.09 0.09 88 1010.4
20260503033016 47 0.0 0.0 0.00 0.09 0.09 88 1010.4
20260503032016 48 0.0 0.0 0.00 0.09 0.09 87 1010.5
20260503031036 48 0.0 0.0 0.00 0.09 0.09 87 1010.3
20260503030016 48 0.0 0.0 0.00 0.09 0.09 86 1010.4
20260503025016 48 315 1.0 4.0 0.00 0.09 0.09 86 1010.3
20260503024016 49 0 1.0 3.0 0.00 0.09 0.09 85 1010.3
20260503023016 49 0 1.0 3.0 0.00 0.09 0.09 84 1010.2
20260503022016 49 23 1.0 3.0 0.00 0.09 0.09 83 1010.4
20260503021036 49 0.0 2.0 0.00 0.09 0.09 83 1010.6
20260503020016 50 0.0 0.0 0.00 0.09 0.09 82 1010.6
20260503015036 50 0.0 0.0 0.00 0.09 0.09 82 1010.6
20260503014016 50 23 1.0 3.0 0.00 0.09 0.09 82 1010.6
20260503013036 50 23 1.0 3.0 0.00 0.09 0.09 82 1010.5
20260503012016 50 0 1.0 3.0 0.00 0.09 0.09 82 1010.5
20260503011016 50 45 2.0 5.0 0.00 0.09 0.09 83 1010.4
20260503010016 50 0 2.0 5.0 0.00 0.09 0.09 84 1010.4
20260503005016 50 338 3.0 7.0 0.00 0.09 0.09 84 1010.4
20260503004016 50 23 3.0 5.0 0.00 0.09 0.09 85 1010.5
20260503003016 50 0 3.0 6.0 0.00 0.09 0.09 86 1010.5
20260503002016 51 0 2.0 6.0 0.00 0.09 0.09 86 1010.5
20260503000016 51 338 4.0 7.0 0.00 0.09 0.09 85 1010.3
20260502235016 51 225 1.0 3.0 0.00 0.09 0.09 81 1010.2
20260502234016 51 225 1.0 2.0 0.00 0.09 0.09 81 1010.0
20260502233016 51 0.0 2.0 0.00 0.09 0.09 81 1010.1
20260502232016 51 0.0 2.0 0.00 0.09 0.09 81 1010.1
20260502231016 51 0.0 1.0 0.00 0.09 0.09 82 1010.0
20260502230016 51 180 1.0 2.0 0.00 0.09 0.09 82 1009.8
20260502225016 51 180 1.0 2.0 0.00 0.09 0.09 82 1009.6
20260502224016 51 180 1.0 3.0 0.00 0.09 0.09 82 1009.5
20260502223016 51 180 1.0 3.0 0.00 0.09 0.09 83 1009.5
20260502222056 51 0.0 1.0 0.00 0.09 0.09 83 1009.6
20260502221016 51 0.0 0.0 0.00 0.09 0.09 83 1009.6
20260502220016 51 0.0 2.0 0.00 0.09 0.09 83 1009.7
20260502215057 51 315 2.0 3.0 0.00 0.09 0.09 82 1009.8
20260502214016 51 315 1.0 4.0 0.00 0.09 0.09 81 1009.8
20260502213036 51 225 2.0 4.0 0.00 0.09 0.09 79 1010.0
20260502212015 52 270 2.0 9.0 0.00 0.09 0.09 76 1010.0
20260502211016 53 293 2.0 7.0 0.00 0.09 0.09 75 1009.9
20260502210016 53 315 2.0 6.0 0.00 0.09 0.09 76 1009.8
20260502205015 53 315 2.0 4.0 0.00 0.09 0.09 75 1009.7
20260502204015 54 315 2.0 5.0 0.00 0.09 0.09 74 1009.7
20260502203016 54 315 2.0 5.0 0.00 0.09 0.09 73 1009.7
20260502202016 55 203 2.0 7.0 0.00 0.09 0.09 69 1009.8
20260502201036 55 158 4.0 11.0 0.00 0.09 0.09 68 1009.6
20260502200035 56 158 3.0 8.0 0.00 0.09 0.09 68 1009.6
20260502195015 56 158 4.0 8.0 0.00 0.09 0.09 66 1009.6
20260502194017 56 158 4.0 10.0 0.00 0.09 0.09 64 1009.8
20260502193056 57 158 3.0 10.0 0.00 0.09 0.09 63 1009.8
20260502192035 57 158 4.0 10.0 0.00 0.09 0.09 60 1009.9
20260502191017 58 158 4.0 10.0 0.00 0.09 0.09 59 1009.9
20260502190015 59 158 5.0 13.0 0.00 0.09 0.09 56 1009.9
20260502185015 60 180 4.0 12.0 0.00 0.09 0.09 53 1010.0
20260502184036 60 203 5.0 15.0 0.00 0.09 0.09 56 1010.1
20260502183015 59 225 5.0 13.0 0.00 0.09 0.09 55 1010.0
20260502182036 58 158 6.0 14.0 0.01 0.09 0.09 57 1010.2
20260502181015 57 180 6.0 15.0 0.01 0.09 0.09 58 1010.3